Year,Month,Day,Hour,Minute,Value (Times are PST for temperature in C)
2020,09,28,00,00,10.80
2020,09,28,00,01,10.80
2020,09,28,00,02,10.70
2020,09,28,00,03,10.70
2020,09,28,00,04,10.70
2020,09,28,00,05,10.70
2020,09,28,00,06,10.70
2020,09,28,00,07,10.70
2020,09,28,00,08,10.80
2020,09,28,00,09,10.80
2020,09,28,00,10,10.80
2020,09,28,00,11,10.80
2020,09,28,00,12,10.80
2020,09,28,00,13,10.80
2020,09,28,00,14,10.80
2020,09,28,00,15,10.70
2020,09,28,00,16,10.70
2020,09,28,00,17,10.70
2020,09,28,00,18,10.70
2020,09,28,00,19,10.70
2020,09,28,00,20,10.70
2020,09,28,00,21,10.70
2020,09,28,00,22,10.70
2020,09,28,00,23,10.70
2020,09,28,00,24,10.60
2020,09,28,00,25,10.60
2020,09,28,00,26,10.60
2020,09,28,00,27,10.50
2020,09,28,00,28,10.50
2020,09,28,00,29,10.50
2020,09,28,00,30,10.50
2020,09,28,00,31,10.40
2020,09,28,00,32,10.40
2020,09,28,00,33,10.40
2020,09,28,00,34,10.40
2020,09,28,00,35,10.40
2020,09,28,00,36,10.30
2020,09,28,00,37,10.30
2020,09,28,00,38,10.30
2020,09,28,00,39,10.30
2020,09,28,00,40,10.30
2020,09,28,00,41,10.30
2020,09,28,00,42,10.30
2020,09,28,00,43,10.30
2020,09,28,00,44,10.20
2020,09,28,00,45,10.20
2020,09,28,00,46,10.20
2020,09,28,00,47,10.20
2020,09,28,00,48,10.20
2020,09,28,00,49,10.20
2020,09,28,00,50,10.20
2020,09,28,00,51,10.20
2020,09,28,00,52,10.20
2020,09,28,00,53,10.20
2020,09,28,00,54,10.20
2020,09,28,00,55,10.20
2020,09,28,00,56,10.10
2020,09,28,00,57,10.10
2020,09,28,00,58,10.10
2020,09,28,00,59,10.20
2020,09,28,01,00,10.20
2020,09,28,01,01,10.20
2020,09,28,01,02,10.20
2020,09,28,01,03,10.10
2020,09,28,01,04,10.10
2020,09,28,01,05,10.10
2020,09,28,01,06,10.10
2020,09,28,01,07,10.10
2020,09,28,01,08,10.10
2020,09,28,01,09,10.10
2020,09,28,01,10,10.10
2020,09,28,01,11,10.10
2020,09,28,01,12,10.10
2020,09,28,01,13,10.00
2020,09,28,01,14,10.00
2020,09,28,01,15,10.00
2020,09,28,01,16,10.00
2020,09,28,01,17,10.00
2020,09,28,01,18,9.90
2020,09,28,01,19,9.90
2020,09,28,01,20,9.90
2020,09,28,01,21,9.90
2020,09,28,01,22,9.90
2020,09,28,01,23,9.90
2020,09,28,01,24,9.90
2020,09,28,01,25,9.90
2020,09,28,01,26,9.90
2020,09,28,01,27,9.80
2020,09,28,01,28,9.80
2020,09,28,01,29,9.80
2020,09,28,01,30,9.80
2020,09,28,01,31,9.80
2020,09,28,01,32,9.80
2020,09,28,01,33,9.80
2020,09,28,01,34,9.80
2020,09,28,01,35,9.80
2020,09,28,01,36,9.80
2020,09,28,01,37,9.80
2020,09,28,01,38,9.80
2020,09,28,01,39,9.80
2020,09,28,01,40,9.70
2020,09,28,01,41,9.70
2020,09,28,01,42,9.70
2020,09,28,01,43,9.70
2020,09,28,01,44,9.70
2020,09,28,01,45,9.60
2020,09,28,01,46,9.60
2020,09,28,01,47,9.60
2020,09,28,01,48,9.60
2020,09,28,01,49,9.60
2020,09,28,01,50,9.60
2020,09,28,01,51,9.60
2020,09,28,01,52,9.70
2020,09,28,01,53,9.70
2020,09,28,01,54,9.70
2020,09,28,01,55,9.70
2020,09,28,01,56,9.70
2020,09,28,01,57,9.70
2020,09,28,01,58,9.70
2020,09,28,01,59,9.60
2020,09,28,02,00,9.60
2020,09,28,02,01,9.60
2020,09,28,02,02,9.60
2020,09,28,02,03,9.60
2020,09,28,02,04,9.60
2020,09,28,02,05,9.60
2020,09,28,02,06,9.60
2020,09,28,02,07,9.60
2020,09,28,02,08,9.60
2020,09,28,02,09,9.70
2020,09,28,02,10,9.70
2020,09,28,02,11,9.70
2020,09,28,02,12,9.70
2020,09,28,02,13,9.70
2020,09,28,02,14,9.70
2020,09,28,02,15,9.70
2020,09,28,02,16,9.70
2020,09,28,02,17,9.70
2020,09,28,02,18,9.80
2020,09,28,02,19,9.70
2020,09,28,02,20,9.70
2020,09,28,02,21,9.70
2020,09,28,02,22,9.70
2020,09,28,02,23,9.70
2020,09,28,02,24,9.70
2020,09,28,02,25,9.70
2020,09,28,02,26,9.70
2020,09,28,02,27,9.70
2020,09,28,02,28,9.70
2020,09,28,02,29,9.70
2020,09,28,02,30,9.70
2020,09,28,02,31,9.60
2020,09,28,02,32,9.60
2020,09,28,02,33,9.60
2020,09,28,02,34,9.60
2020,09,28,02,35,9.60
2020,09,28,02,36,9.60
2020,09,28,02,37,9.60
2020,09,28,02,38,9.50
2020,09,28,02,39,9.50
2020,09,28,02,40,9.50
2020,09,28,02,41,9.50
2020,09,28,02,42,9.40
2020,09,28,02,43,9.40
2020,09,28,02,44,9.40
2020,09,28,02,45,9.40
2020,09,28,02,46,9.40
2020,09,28,02,47,9.40
2020,09,28,02,48,9.40
2020,09,28,02,49,9.40
2020,09,28,02,50,9.40
2020,09,28,02,51,9.40
2020,09,28,02,52,9.40
2020,09,28,02,53,9.40
2020,09,28,02,54,9.40
2020,09,28,02,55,9.40
2020,09,28,02,56,9.40
2020,09,28,02,57,9.40
2020,09,28,02,58,9.40
2020,09,28,02,59,9.50
2020,09,28,03,00,9.50
2020,09,28,03,01,9.50
2020,09,28,03,02,9.50
2020,09,28,03,03,9.40
2020,09,28,03,04,9.40
2020,09,28,03,05,9.40
2020,09,28,03,06,9.40
2020,09,28,03,07,9.40
2020,09,28,03,08,9.40
2020,09,28,03,09,9.40
2020,09,28,03,10,9.40
2020,09,28,03,11,9.30
2020,09,28,03,12,9.30
2020,09,28,03,13,9.30
2020,09,28,03,14,9.30
2020,09,28,03,15,9.30
2020,09,28,03,16,9.30
2020,09,28,03,17,9.30
2020,09,28,03,18,9.30
2020,09,28,03,19,9.30
2020,09,28,03,20,9.30
2020,09,28,03,21,9.40
2020,09,28,03,22,9.40
2020,09,28,03,23,9.50
2020,09,28,03,24,9.50
2020,09,28,03,25,9.60
2020,09,28,03,26,9.60
2020,09,28,03,27,9.60
2020,09,28,03,28,9.60
2020,09,28,03,29,9.60
2020,09,28,03,30,9.60
2020,09,28,03,31,9.70
2020,09,28,03,32,9.70
2020,09,28,03,33,9.70
2020,09,28,03,34,9.80
2020,09,28,03,35,9.80
2020,09,28,03,36,9.80
2020,09,28,03,37,9.90
2020,09,28,03,38,10.00
2020,09,28,03,39,10.00
2020,09,28,03,40,10.10
2020,09,28,03,41,10.10
2020,09,28,03,42,10.10
2020,09,28,03,43,10.10
2020,09,28,03,44,10.10
2020,09,28,03,45,10.10
2020,09,28,03,46,10.10
2020,09,28,03,47,10.10
2020,09,28,03,48,10.00
2020,09,28,03,49,10.00
2020,09,28,03,50,10.00
2020,09,28,03,51,10.00
2020,09,28,03,52,10.00
2020,09,28,03,53,10.00
2020,09,28,03,54,10.10
2020,09,28,03,55,10.10
2020,09,28,03,56,10.20
2020,09,28,03,57,10.20
2020,09,28,03,58,10.20
2020,09,28,03,59,10.30
2020,09,28,04,00,10.30
2020,09,28,04,01,10.20
2020,09,28,04,02,10.20
2020,09,28,04,03,10.20
2020,09,28,04,04,10.20
2020,09,28,04,05,10.10
2020,09,28,04,06,10.10
2020,09,28,04,07,10.10
2020,09,28,04,08,10.00
2020,09,28,04,09,10.00
2020,09,28,04,10,10.00
2020,09,28,04,11,10.00
2020,09,28,04,12,10.00
2020,09,28,04,13,10.00
2020,09,28,04,14,10.00
2020,09,28,04,15,9.90
2020,09,28,04,16,9.90
2020,09,28,04,17,9.90
2020,09,28,04,18,9.90
2020,09,28,04,19,9.80
2020,09,28,04,20,9.80
2020,09,28,04,21,9.80
2020,09,28,04,22,9.80
2020,09,28,04,23,9.80
2020,09,28,04,24,9.70
2020,09,28,04,25,9.70
2020,09,28,04,26,9.60
2020,09,28,04,27,9.60
2020,09,28,04,28,9.60
2020,09,28,04,29,9.50
2020,09,28,04,30,9.50
2020,09,28,04,31,9.50
2020,09,28,04,32,9.40
2020,09,28,04,33,9.40
2020,09,28,04,34,9.40
2020,09,28,04,35,9.40
2020,09,28,04,36,9.30
2020,09,28,04,37,9.30
2020,09,28,04,38,9.30
2020,09,28,04,39,9.30
2020,09,28,04,40,9.30
2020,09,28,04,41,9.30
2020,09,28,04,42,9.20
2020,09,28,04,43,9.20
2020,09,28,04,44,9.20
2020,09,28,04,45,9.20
2020,09,28,04,46,9.20
2020,09,28,04,47,9.20
2020,09,28,04,48,9.20
2020,09,28,04,49,9.10
2020,09,28,04,50,9.10
2020,09,28,04,51,9.10
2020,09,28,04,52,9.10
2020,09,28,04,53,9.10
2020,09,28,04,54,9.10
2020,09,28,04,55,9.10
2020,09,28,04,56,9.10
2020,09,28,04,57,9.10
2020,09,28,04,58,9.10
2020,09,28,04,59,9.00
2020,09,28,05,00,9.00
2020,09,28,05,01,9.00
2020,09,28,05,02,9.00
2020,09,28,05,03,9.00
2020,09,28,05,04,9.00
2020,09,28,05,05,9.00
2020,09,28,05,06,9.00
2020,09,28,05,07,9.10
2020,09,28,05,08,9.10
2020,09,28,05,09,9.10
2020,09,28,05,10,9.10
2020,09,28,05,11,9.10
2020,09,28,05,12,9.10
2020,09,28,05,13,9.10
2020,09,28,05,14,9.10
2020,09,28,05,15,9.10
2020,09,28,05,16,9.10
2020,09,28,05,17,9.10
2020,09,28,05,18,9.10
2020,09,28,05,19,9.10
2020,09,28,05,20,9.10
2020,09,28,05,21,9.10
2020,09,28,05,22,9.10
2020,09,28,05,23,9.20
2020,09,28,05,24,9.30
2020,09,28,05,25,9.30
2020,09,28,05,26,9.40
2020,09,28,05,27,9.50
2020,09,28,05,28,9.50
2020,09,28,05,29,9.60
2020,09,28,05,30,9.70
2020,09,28,05,31,9.70
2020,09,28,05,32,9.70
2020,09,28,05,33,9.70
2020,09,28,05,34,9.70
2020,09,28,05,35,9.60
2020,09,28,05,36,9.50
2020,09,28,05,37,9.50
2020,09,28,05,38,9.50
2020,09,28,05,39,9.50
2020,09,28,05,40,9.50
2020,09,28,05,41,9.40
2020,09,28,05,42,9.40
2020,09,28,05,43,9.40
2020,09,28,05,44,9.30
2020,09,28,05,45,9.30
2020,09,28,05,46,9.30
2020,09,28,05,47,9.30
2020,09,28,05,48,9.30
2020,09,28,05,49,9.30
2020,09,28,05,50,9.40
2020,09,28,05,51,9.40
2020,09,28,05,52,9.40
2020,09,28,05,53,9.40
2020,09,28,05,54,9.40
2020,09,28,05,55,9.40
2020,09,28,05,56,9.50
2020,09,28,05,57,9.50
2020,09,28,05,58,9.50
2020,09,28,05,59,9.50
2020,09,28,06,00,9.50
2020,09,28,06,01,9.50
2020,09,28,06,02,9.40
2020,09,28,06,03,9.40
2020,09,28,06,04,9.40
2020,09,28,06,05,9.40
2020,09,28,06,06,9.30
2020,09,28,06,07,9.30
2020,09,28,06,08,9.30
2020,09,28,06,09,9.20
2020,09,28,06,10,9.20
2020,09,28,06,11,9.20
2020,09,28,06,12,9.10
2020,09,28,06,13,9.10
2020,09,28,06,14,9.10
2020,09,28,06,15,9.10
2020,09,28,06,16,9.10
2020,09,28,06,17,9.10
2020,09,28,06,18,9.10
2020,09,28,06,19,9.10
2020,09,28,06,20,9.10
2020,09,28,06,21,9.00
2020,09,28,06,22,9.00
2020,09,28,06,23,9.00
2020,09,28,06,24,9.00
2020,09,28,06,25,9.00
2020,09,28,06,26,9.00
2020,09,28,06,27,8.90
2020,09,28,06,28,8.90
2020,09,28,06,29,8.90
2020,09,28,06,30,8.90
2020,09,28,06,31,8.90
2020,09,28,06,32,8.90
2020,09,28,06,33,8.90
2020,09,28,06,34,8.90
2020,09,28,06,35,8.90
2020,09,28,06,36,8.90
2020,09,28,06,37,9.00
2020,09,28,06,38,9.00
2020,09,28,06,39,9.00
2020,09,28,06,40,9.00
2020,09,28,06,41,9.00
2020,09,28,06,42,9.00
2020,09,28,06,43,9.00
2020,09,28,06,44,9.00
2020,09,28,06,45,9.10
2020,09,28,06,46,9.10
2020,09,28,06,47,9.20
2020,09,28,06,48,9.30
2020,09,28,06,49,9.40
2020,09,28,06,50,9.40
2020,09,28,06,51,9.50
2020,09,28,06,52,9.60
2020,09,28,06,53,9.60
2020,09,28,06,54,9.70
2020,09,28,06,55,9.70
2020,09,28,06,56,9.70
2020,09,28,06,57,9.60
2020,09,28,06,58,9.60
2020,09,28,06,59,9.60
2020,09,28,07,00,9.60
2020,09,28,07,01,9.60
2020,09,28,07,02,9.60
2020,09,28,07,03,9.60
2020,09,28,07,04,9.60
2020,09,28,07,05,9.60
2020,09,28,07,06,9.60
2020,09,28,07,07,9.60
2020,09,28,07,08,9.60
2020,09,28,07,09,9.60
2020,09,28,07,10,9.60
2020,09,28,07,11,9.60
2020,09,28,07,12,9.60
2020,09,28,07,13,9.60
2020,09,28,07,14,9.60
2020,09,28,07,15,9.70
2020,09,28,07,16,9.80
2020,09,28,07,17,9.80
2020,09,28,07,18,9.90
2020,09,28,07,19,9.90
2020,09,28,07,20,9.90
2020,09,28,07,21,9.90
2020,09,28,07,22,9.90
2020,09,28,07,23,9.90
2020,09,28,07,24,9.90
2020,09,28,07,25,9.90
2020,09,28,07,26,10.00
2020,09,28,07,27,10.00
2020,09,28,07,28,10.00
2020,09,28,07,29,10.10
2020,09,28,07,30,10.10
2020,09,28,07,31,10.10
2020,09,28,07,32,10.10
2020,09,28,07,33,10.20
2020,09,28,07,34,10.20
2020,09,28,07,35,10.20
2020,09,28,07,36,10.30
2020,09,28,07,37,10.40
2020,09,28,07,38,10.50
2020,09,28,07,39,10.60
2020,09,28,07,40,10.70
2020,09,28,07,41,10.70
2020,09,28,07,42,10.70
2020,09,28,07,43,10.80
2020,09,28,07,44,10.80
2020,09,28,07,45,10.80
2020,09,28,07,46,10.80
2020,09,28,07,47,10.80
2020,09,28,07,48,10.90
2020,09,28,07,49,10.90
2020,09,28,07,50,11.00
2020,09,28,07,51,11.00
2020,09,28,07,52,11.10
2020,09,28,07,53,11.10
2020,09,28,07,54,11.20
2020,09,28,07,55,11.20
2020,09,28,07,56,11.20
2020,09,28,07,57,11.30
2020,09,28,07,58,11.30
2020,09,28,07,59,11.40
2020,09,28,08,00,11.40
2020,09,28,08,01,11.40
2020,09,28,08,02,11.50
2020,09,28,08,03,11.50
2020,09,28,08,04,11.60
2020,09,28,08,05,11.60
2020,09,28,08,06,11.70
2020,09,28,08,07,11.70
2020,09,28,08,08,11.80
2020,09,28,08,09,11.80
2020,09,28,08,10,11.80
2020,09,28,08,11,11.90
2020,09,28,08,12,11.90
2020,09,28,08,13,12.00
2020,09,28,08,14,12.00
2020,09,28,08,15,12.10
2020,09,28,08,16,12.10
2020,09,28,08,17,12.20
2020,09,28,08,18,12.20
2020,09,28,08,19,12.30
2020,09,28,08,20,12.30
2020,09,28,08,21,12.40
2020,09,28,08,22,12.40
2020,09,28,08,23,12.50
2020,09,28,08,24,12.60
2020,09,28,08,25,12.60
2020,09,28,08,26,12.70
2020,09,28,08,27,12.80
2020,09,28,08,28,12.80
2020,09,28,08,29,12.90
2020,09,28,08,30,12.90
2020,09,28,08,31,13.00
2020,09,28,08,32,13.00
2020,09,28,08,33,13.10
2020,09,28,08,34,13.10
2020,09,28,08,35,13.20
2020,09,28,08,36,13.20
2020,09,28,08,37,13.30
2020,09,28,08,38,13.40
2020,09,28,08,39,13.40
2020,09,28,08,40,13.50
2020,09,28,08,41,13.60
2020,09,28,08,42,13.60
2020,09,28,08,43,13.70
2020,09,28,08,44,13.70
2020,09,28,08,45,13.80
2020,09,28,08,46,13.80
2020,09,28,08,47,13.90
2020,09,28,08,48,13.90
2020,09,28,08,49,14.00
2020,09,28,08,50,14.00
2020,09,28,08,51,14.10
2020,09,28,08,52,14.10
2020,09,28,08,53,14.20
2020,09,28,08,54,14.20
2020,09,28,08,55,14.20
2020,09,28,08,56,14.30
2020,09,28,08,57,14.30
2020,09,28,08,58,14.30
2020,09,28,08,59,14.40
2020,09,28,09,00,14.40
2020,09,28,09,01,14.40
2020,09,28,09,02,14.40
2020,09,28,09,03,14.50
2020,09,28,09,04,14.50
2020,09,28,09,05,14.60
2020,09,28,09,06,14.60
2020,09,28,09,07,14.60
2020,09,28,09,08,14.60
2020,09,28,09,09,14.60
2020,09,28,09,10,14.70
2020,09,28,09,11,14.70
2020,09,28,09,12,14.70
2020,09,28,09,13,14.70
2020,09,28,09,14,14.80
2020,09,28,09,15,14.80
2020,09,28,09,16,14.80
2020,09,28,09,17,14.80
2020,09,28,09,18,14.80
2020,09,28,09,19,14.80
2020,09,28,09,20,14.90
2020,09,28,09,21,14.90
2020,09,28,09,22,14.90
2020,09,28,09,23,14.90
2020,09,28,09,24,14.90
2020,09,28,09,25,14.90
2020,09,28,09,26,14.90
2020,09,28,09,27,14.90
2020,09,28,09,28,14.90
2020,09,28,09,29,14.90
2020,09,28,09,30,15.00
2020,09,28,09,31,15.00
2020,09,28,09,32,15.00
2020,09,28,09,33,15.10
2020,09,28,09,34,15.10
2020,09,28,09,35,15.10
2020,09,28,09,36,15.10
2020,09,28,09,37,15.20
2020,09,28,09,38,15.20
2020,09,28,09,39,15.20
2020,09,28,09,40,15.20
2020,09,28,09,41,15.30
2020,09,28,09,42,15.30
2020,09,28,09,43,15.30
2020,09,28,09,44,15.30
2020,09,28,09,45,15.30
2020,09,28,09,46,15.40
2020,09,28,09,47,15.40
2020,09,28,09,48,15.50
2020,09,28,09,49,15.50
2020,09,28,09,50,15.60
2020,09,28,09,51,15.60
2020,09,28,09,52,15.60
2020,09,28,09,53,15.60
2020,09,28,09,54,15.60
2020,09,28,09,55,15.60
2020,09,28,09,56,15.60
2020,09,28,09,57,15.70
2020,09,28,09,58,15.70
2020,09,28,09,59,15.70
2020,09,28,10,00,15.70
2020,09,28,10,01,15.70
2020,09,28,10,02,15.70
2020,09,28,10,03,15.70
2020,09,28,10,04,15.70
2020,09,28,10,05,15.60
2020,09,28,10,06,15.60
2020,09,28,10,07,15.50
2020,09,28,10,08,15.50
2020,09,28,10,09,15.60
2020,09,28,10,10,15.60
2020,09,28,10,11,15.60
2020,09,28,10,12,15.60
2020,09,28,10,13,15.60
2020,09,28,10,14,15.60
2020,09,28,10,15,15.60
2020,09,28,10,16,15.60
2020,09,28,10,17,15.60
2020,09,28,10,18,15.60
2020,09,28,10,19,15.60
2020,09,28,10,20,15.70
2020,09,28,10,21,15.80
2020,09,28,10,22,15.80
2020,09,28,10,23,15.90
2020,09,28,10,24,15.90
2020,09,28,10,25,15.90
2020,09,28,10,26,15.90
2020,09,28,10,27,15.90
2020,09,28,10,28,15.80
2020,09,28,10,29,15.90
2020,09,28,10,30,15.90
2020,09,28,10,31,15.90
2020,09,28,10,32,15.90
2020,09,28,10,33,15.90
2020,09,28,10,34,15.90
2020,09,28,10,35,15.90
2020,09,28,10,36,15.90
2020,09,28,10,37,16.00
2020,09,28,10,38,16.10
2020,09,28,10,39,16.20
2020,09,28,10,40,16.20
2020,09,28,10,41,16.20
2020,09,28,10,42,16.10
2020,09,28,10,43,16.10
2020,09,28,10,44,16.20
2020,09,28,10,45,16.20
2020,09,28,10,46,16.40
2020,09,28,10,47,16.50
2020,09,28,10,48,16.50
2020,09,28,10,49,16.60
2020,09,28,10,50,16.70
2020,09,28,10,51,16.70
2020,09,28,10,52,16.80
2020,09,28,10,53,16.80
2020,09,28,10,54,16.80
2020,09,28,10,55,16.80
2020,09,28,10,56,16.80
2020,09,28,10,57,16.80
2020,09,28,10,58,16.70
2020,09,28,10,59,16.60
2020,09,28,11,00,16.50
2020,09,28,11,01,16.40
2020,09,28,11,02,16.50
2020,09,28,11,03,16.50
2020,09,28,11,04,16.50
2020,09,28,11,05,16.50
2020,09,28,11,06,16.50
2020,09,28,11,07,16.50
2020,09,28,11,08,16.60
2020,09,28,11,09,16.60
2020,09,28,11,10,16.70
2020,09,28,11,11,16.70
2020,09,28,11,12,16.70
2020,09,28,11,13,16.70
2020,09,28,11,14,16.60
2020,09,28,11,15,16.50
2020,09,28,11,16,16.40
2020,09,28,11,17,16.30
2020,09,28,11,18,16.20
2020,09,28,11,19,16.20
2020,09,28,11,20,16.20
2020,09,28,11,21,16.20
2020,09,28,11,22,16.20
2020,09,28,11,23,16.30
2020,09,28,11,24,16.30
2020,09,28,11,25,16.30
2020,09,28,11,26,16.30
2020,09,28,11,27,16.20
2020,09,28,11,28,16.20
2020,09,28,11,29,16.20
2020,09,28,11,30,16.30
2020,09,28,11,31,16.30
2020,09,28,11,32,16.30
2020,09,28,11,33,16.30
2020,09,28,11,34,16.30
2020,09,28,11,35,16.30
2020,09,28,11,36,16.30
2020,09,28,11,37,16.30
2020,09,28,11,38,16.30
2020,09,28,11,39,16.30
2020,09,28,11,40,16.40
2020,09,28,11,41,16.30
2020,09,28,11,42,16.40
2020,09,28,11,43,16.50
2020,09,28,11,44,16.50
2020,09,28,11,45,16.60
2020,09,28,11,46,16.70
2020,09,28,11,47,16.70
2020,09,28,11,48,16.70
2020,09,28,11,49,16.80
2020,09,28,11,50,17.00
2020,09,28,11,51,17.10
2020,09,28,11,52,17.20
2020,09,28,11,53,17.30
2020,09,28,11,54,17.40
2020,09,28,11,55,17.50
2020,09,28,11,56,17.60
2020,09,28,11,57,17.70
2020,09,28,11,58,17.70
2020,09,28,11,59,17.70
2020,09,28,12,00,17.70
2020,09,28,12,01,17.60
2020,09,28,12,02,17.50
2020,09,28,12,03,17.50
2020,09,28,12,04,17.50
2020,09,28,12,05,17.40
2020,09,28,12,06,17.30
2020,09,28,12,07,17.30
2020,09,28,12,08,17.30
2020,09,28,12,09,17.20
2020,09,28,12,10,17.20
2020,09,28,12,11,17.30
2020,09,28,12,12,17.30
2020,09,28,12,13,17.30
2020,09,28,12,14,17.30
2020,09,28,12,15,17.40
2020,09,28,12,16,17.40
2020,09,28,12,17,17.40
2020,09,28,12,18,17.50
2020,09,28,12,19,17.50
2020,09,28,12,20,17.60
2020,09,28,12,21,17.60
2020,09,28,12,22,17.60
2020,09,28,12,23,17.50
2020,09,28,12,24,17.50
2020,09,28,12,25,17.60
2020,09,28,12,26,17.60
2020,09,28,12,27,17.70
2020,09,28,12,28,17.70
2020,09,28,12,29,17.80
2020,09,28,12,30,18.00
2020,09,28,12,31,18.10
2020,09,28,12,32,18.20
2020,09,28,12,33,18.20
2020,09,28,12,34,18.20
2020,09,28,12,35,18.10
2020,09,28,12,36,18.10
2020,09,28,12,37,18.10
2020,09,28,12,38,18.10
2020,09,28,12,39,18.10
2020,09,28,12,40,18.00
2020,09,28,12,41,17.90
2020,09,28,12,42,17.90
2020,09,28,12,43,17.90
2020,09,28,12,44,17.80
2020,09,28,12,45,17.70
2020,09,28,12,46,17.70
2020,09,28,12,47,17.70
2020,09,28,12,48,17.80
2020,09,28,12,49,17.80
2020,09,28,12,50,17.80
2020,09,28,12,51,17.80
2020,09,28,12,52,17.70
2020,09,28,12,53,17.60
2020,09,28,12,54,17.60
2020,09,28,12,55,17.50
2020,09,28,12,56,17.50
2020,09,28,12,57,17.50
2020,09,28,12,58,17.50
2020,09,28,12,59,17.50
2020,09,28,13,00,17.50
2020,09,28,13,01,17.50
2020,09,28,13,02,17.50
2020,09,28,13,03,17.40
2020,09,28,13,04,17.40
2020,09,28,13,05,17.40
2020,09,28,13,06,17.50
2020,09,28,13,07,17.60
2020,09,28,13,08,17.60
2020,09,28,13,09,17.60
2020,09,28,13,10,17.70
2020,09,28,13,11,17.80
2020,09,28,13,12,17.80
2020,09,28,13,13,17.80
2020,09,28,13,14,17.80
2020,09,28,13,15,17.90
2020,09,28,13,16,17.80
2020,09,28,13,17,17.80
2020,09,28,13,18,17.80
2020,09,28,13,19,17.80
2020,09,28,13,20,17.80
2020,09,28,13,21,17.80
2020,09,28,13,22,17.80
2020,09,28,13,23,17.80
2020,09,28,13,24,17.80
2020,09,28,13,25,17.80
2020,09,28,13,26,17.80
2020,09,28,13,27,17.80
2020,09,28,13,28,17.80
2020,09,28,13,29,17.80
2020,09,28,13,30,17.80
2020,09,28,13,31,17.80
2020,09,28,13,32,18.00
2020,09,28,13,33,18.10
2020,09,28,13,34,18.20
2020,09,28,13,35,18.30
2020,09,28,13,36,18.40
2020,09,28,13,37,18.50
2020,09,28,13,38,18.40
2020,09,28,13,39,18.30
2020,09,28,13,40,18.30
2020,09,28,13,41,18.30
2020,09,28,13,42,18.30
2020,09,28,13,43,18.40
2020,09,28,13,44,18.40
2020,09,28,13,45,18.50
2020,09,28,13,46,18.40
2020,09,28,13,47,18.40
2020,09,28,13,48,18.30
2020,09,28,13,49,18.30
2020,09,28,13,50,18.30
2020,09,28,13,51,18.40
2020,09,28,13,52,18.50
2020,09,28,13,53,18.60
2020,09,28,13,54,18.60
2020,09,28,13,55,18.60
2020,09,28,13,56,18.60
2020,09,28,13,57,18.50
2020,09,28,13,58,18.50
2020,09,28,13,59,18.40
2020,09,28,14,00,18.30
2020,09,28,14,01,18.40
2020,09,28,14,02,18.40
2020,09,28,14,03,18.40
2020,09,28,14,04,18.30
2020,09,28,14,05,18.40
2020,09,28,14,06,18.40
2020,09,28,14,07,18.50
2020,09,28,14,08,18.50
2020,09,28,14,09,18.40
2020,09,28,14,10,18.40
2020,09,28,14,11,18.30
2020,09,28,14,12,18.30
2020,09,28,14,13,18.30
2020,09,28,14,14,18.30
2020,09,28,14,15,18.30
2020,09,28,14,16,18.30
2020,09,28,14,17,18.40
2020,09,28,14,18,18.40
2020,09,28,14,19,18.40
2020,09,28,14,20,18.40
2020,09,28,14,21,18.40
2020,09,28,14,22,18.50
2020,09,28,14,23,18.50
2020,09,28,14,24,18.60
2020,09,28,14,25,18.60
2020,09,28,14,26,18.60
2020,09,28,14,27,18.60
2020,09,28,14,28,18.60
2020,09,28,14,29,18.60
2020,09,28,14,30,18.60
2020,09,28,14,31,18.60
2020,09,28,14,32,18.60
2020,09,28,14,33,18.60
2020,09,28,14,34,18.60
2020,09,28,14,35,18.50
2020,09,28,14,36,18.60
2020,09,28,14,37,18.60
2020,09,28,14,38,18.60
2020,09,28,14,39,18.60
2020,09,28,14,40,18.60
2020,09,28,14,41,18.60
2020,09,28,14,42,18.60
2020,09,28,14,43,18.60
2020,09,28,14,44,18.60
2020,09,28,14,45,18.70
2020,09,28,14,46,18.70
2020,09,28,14,47,18.70
2020,09,28,14,48,18.70
2020,09,28,14,49,18.70
2020,09,28,14,50,18.70
2020,09,28,14,51,18.80
2020,09,28,14,52,18.80
2020,09,28,14,53,18.80
2020,09,28,14,54,18.80
2020,09,28,14,55,18.70
2020,09,28,14,56,18.70
2020,09,28,14,57,18.80
2020,09,28,14,58,18.80
2020,09,28,14,59,18.80
2020,09,28,15,00,18.80
2020,09,28,15,01,18.80
2020,09,28,15,02,18.80
2020,09,28,15,03,18.80
2020,09,28,15,04,18.70
2020,09,28,15,05,18.70
2020,09,28,15,06,18.70
2020,09,28,15,07,18.70
2020,09,28,15,08,18.80
2020,09,28,15,09,18.80
2020,09,28,15,10,18.70
2020,09,28,15,11,18.70
2020,09,28,15,12,18.70
2020,09,28,15,13,18.70
2020,09,28,15,14,18.70
2020,09,28,15,15,18.70
2020,09,28,15,16,18.80
2020,09,28,15,17,18.80
2020,09,28,15,18,18.80
2020,09,28,15,19,18.80
2020,09,28,15,20,18.80
2020,09,28,15,21,18.80
2020,09,28,15,22,18.80
2020,09,28,15,23,18.80
2020,09,28,15,24,18.80
2020,09,28,15,25,18.80
2020,09,28,15,26,18.80
2020,09,28,15,27,18.80
2020,09,28,15,28,18.80
2020,09,28,15,29,18.90
2020,09,28,15,30,18.90
2020,09,28,15,31,18.90
2020,09,28,15,32,18.90
2020,09,28,15,33,18.90
2020,09,28,15,34,18.90
2020,09,28,15,35,18.80
2020,09,28,15,36,18.80
2020,09,28,15,37,18.70
2020,09,28,15,38,18.80
2020,09,28,15,39,18.80
2020,09,28,15,40,18.80
2020,09,28,15,41,18.80
2020,09,28,15,42,18.70
2020,09,28,15,43,18.80
2020,09,28,15,44,18.80
2020,09,28,15,45,18.90
2020,09,28,15,46,19.00
2020,09,28,15,47,19.10
2020,09,28,15,48,19.00
2020,09,28,15,49,19.00
2020,09,28,15,50,19.00
2020,09,28,15,51,19.00
2020,09,28,15,52,19.00
2020,09,28,15,53,19.00
2020,09,28,15,54,19.00
2020,09,28,15,55,18.90
2020,09,28,15,56,18.90
2020,09,28,15,57,18.90
2020,09,28,15,58,19.00
2020,09,28,15,59,19.00
2020,09,28,16,00,19.10
2020,09,28,16,01,19.20
2020,09,28,16,02,19.20
2020,09,28,16,03,19.30
2020,09,28,16,04,19.30
2020,09,28,16,05,19.40
2020,09,28,16,06,19.40
2020,09,28,16,07,19.30
2020,09,28,16,08,19.30
2020,09,28,16,09,19.30
2020,09,28,16,10,19.20
2020,09,28,16,11,19.10
2020,09,28,16,12,19.10
2020,09,28,16,13,19.00
2020,09,28,16,14,18.90
2020,09,28,16,15,18.90
2020,09,28,16,16,18.90
2020,09,28,16,17,18.90
2020,09,28,16,18,18.90
2020,09,28,16,19,18.90
2020,09,28,16,20,18.90
2020,09,28,16,21,18.90
2020,09,28,16,22,18.80
2020,09,28,16,23,18.80
2020,09,28,16,24,18.80
2020,09,28,16,25,18.80
2020,09,28,16,26,18.80
2020,09,28,16,27,18.80
2020,09,28,16,28,18.80
2020,09,28,16,29,18.80
2020,09,28,16,30,18.80
2020,09,28,16,31,18.80
2020,09,28,16,32,18.80
2020,09,28,16,33,18.80
2020,09,28,16,34,18.80
2020,09,28,16,35,18.80
2020,09,28,16,36,18.80
2020,09,28,16,37,18.80
2020,09,28,16,38,18.80
2020,09,28,16,39,18.70
2020,09,28,16,40,18.70
2020,09,28,16,41,18.70
2020,09,28,16,42,18.70
2020,09,28,16,43,18.70
2020,09,28,16,44,18.70
2020,09,28,16,45,18.70
2020,09,28,16,46,18.70
2020,09,28,16,47,18.70
2020,09,28,16,48,18.70
2020,09,28,16,49,18.60
2020,09,28,16,50,18.60
2020,09,28,16,51,18.70
2020,09,28,16,52,18.70
2020,09,28,16,53,18.70
2020,09,28,16,54,18.70
2020,09,28,16,55,18.80
2020,09,28,16,56,18.80
2020,09,28,16,57,18.80
2020,09,28,16,58,18.90
2020,09,28,16,59,18.90
2020,09,28,17,00,18.90
2020,09,28,17,01,18.90
2020,09,28,17,02,18.90
2020,09,28,17,03,18.90
2020,09,28,17,04,18.90
2020,09,28,17,05,18.90
2020,09,28,17,06,18.80
2020,09,28,17,07,18.80
2020,09,28,17,08,18.70
2020,09,28,17,09,18.60
2020,09,28,17,10,18.60
2020,09,28,17,11,18.50
2020,09,28,17,12,18.50
2020,09,28,17,13,18.40
2020,09,28,17,14,18.40
2020,09,28,17,15,18.40
2020,09,28,17,16,18.40
2020,09,28,17,17,18.40
2020,09,28,17,18,18.40
2020,09,28,17,19,18.40
2020,09,28,17,20,18.40
2020,09,28,17,21,18.40
2020,09,28,17,22,18.40
2020,09,28,17,23,18.40
2020,09,28,17,24,18.40
2020,09,28,17,25,18.40
2020,09,28,17,26,18.40
2020,09,28,17,27,18.40
2020,09,28,17,28,18.50
2020,09,28,17,29,18.40
2020,09,28,17,30,18.40
2020,09,28,17,31,18.40
2020,09,28,17,32,18.40
2020,09,28,17,33,18.40